Time,TemperatureF,DewpointF,PressureIn,WindDirection,WindDirectionDegrees,WindSpeedMPH,WindSpeedGustMPH,Humidity,HourlyPrecipIn,Conditions,Clouds,dailyrainin,SoftwareType,DateUTC
2013-09-06 00:03:00,60.3,59.7,29.88,SW,230,1.0,3.6,98,0.47,,,-99.99,FreeWX-Wi 1.01,2013-09-06 07:03:00,
2013-09-06 00:08:00,60.3,59.7,29.88,SSW,201,1.0,3.6,98,0.51,,,-99.99,FreeWX-Wi 1.01,2013-09-06 07:08:00,
2013-09-06 00:13:00,60.1,59.5,29.88,SE,139,1.0,2.7,98,0.47,,,-99.99,FreeWX-Wi 1.01,2013-09-06 07:13:00,
2013-09-06 00:18:00,60.1,59.5,29.88,North,-999,0.0,3.1,98,0.43,,,-99.99,FreeWX-Wi 1.01,2013-09-06 07:18:00,
2013-09-06 00:23:00,60.3,59.7,29.88,North,-999,0.0,0.0,98,0.39,,,-99.99,FreeWX-Wi 1.01,2013-09-06 07:23:00,
2013-09-06 00:28:00,60.3,59.7,29.88,North,-999,0.0,0.0,98,0.43,,,-99.99,FreeWX-Wi 1.01,2013-09-06 07:28:00,
2013-09-06 00:33:00,60.1,59.5,29.91,North,-999,0.0,2.7,98,0.43,,,-99.99,FreeWX-Wi 1.01,2013-09-06 07:33:00,
2013-09-06 00:38:00,60.1,59.5,29.91,North,-999,0.0,0.0,98,0.47,,,-99.99,FreeWX-Wi 1.01,2013-09-06 07:38:00,
2013-09-06 00:43:00,60.3,59.7,29.91,North,-999,0.0,0.0,98,0.43,,,-99.99,FreeWX-Wi 1.01,2013-09-06 07:43:00,
2013-09-06 00:48:00,60.4,59.9,29.88,North,-999,0.0,0.0,98,0.43,,,-99.99,FreeWX-Wi 1.01,2013-09-06 07:48:00,
2013-09-06 00:53:00,60.3,59.7,29.88,North,-999,0.0,0.0,98,0.31,,,-99.99,FreeWX-Wi 1.01,2013-09-06 07:53:00,
2013-09-06 00:58:00,60.3,59.7,29.88,North,-999,0.0,2.2,98,0.28,,,-99.99,FreeWX-Wi 1.01,2013-09-06 07:58:00,
2013-09-06 01:03:00,60.3,59.7,29.88,North,-999,0.0,0.0,98,0.20,,,-99.99,FreeWX-Wi 1.01,2013-09-06 08:03:00,
2013-09-06 01:08:00,60.3,59.7,29.88,North,-999,0.0,0.0,98,0.24,,,-99.99,FreeWX-Wi 1.01,2013-09-06 08:08:00,
2013-09-06 01:13:00,60.3,59.7,29.88,North,-999,0.0,0.0,98,0.24,,,-99.99,FreeWX-Wi 1.01,2013-09-06 08:13:00,
2013-09-06 01:18:00,60.3,59.7,29.88,North,-999,0.0,0.0,98,0.20,,,-99.99,FreeWX-Wi 1.01,2013-09-06 08:18:00,
2013-09-06 01:23:00,60.3,59.7,29.88,North,-999,0.0,0.0,98,0.28,,,-99.99,FreeWX-Wi 1.01,2013-09-06 08:23:00,
2013-09-06 01:28:00,60.3,59.7,29.88,North,-999,0.0,0.0,98,0.28,,,-99.99,FreeWX-Wi 1.01,2013-09-06 08:28:00,
2013-09-06 01:33:00,60.1,59.5,29.88,North,-999,0.0,0.0,98,0.31,,,-99.99,FreeWX-Wi 1.01,2013-09-06 08:33:00,
2013-09-06 01:38:00,60.3,59.7,29.88,North,-999,0.0,0.0,98,0.28,,,-99.99,FreeWX-Wi 1.01,2013-09-06 08:38:00,
2013-09-06 01:43:00,60.1,59.5,29.88,North,-999,0.0,0.0,98,0.28,,,-99.99,FreeWX-Wi 1.01,2013-09-06 08:43:00,
2013-09-06 01:48:00,60.1,59.5,29.88,North,-999,0.0,0.0,98,0.28,,,-99.99,FreeWX-Wi 1.01,2013-09-06 08:48:00,
2013-09-06 01:53:00,60.1,59.5,29.88,North,-999,0.0,0.0,98,0.28,,,-99.99,FreeWX-Wi 1.01,2013-09-06 08:53:00,
2013-09-06 01:58:00,60.1,59.5,29.88,North,-999,0.0,0.0,98,0.31,,,-99.99,FreeWX-Wi 1.01,2013-09-06 08:58:00,
2013-09-06 02:03:00,60.1,59.5,29.88,North,-999,0.0,0.0,98,0.31,,,-99.99,FreeWX-Wi 1.01,2013-09-06 09:03:00,
2013-09-06 02:08:00,60.1,59.5,29.88,North,-999,0.0,0.0,98,0.28,,,-99.99,FreeWX-Wi 1.01,2013-09-06 09:08:00,
2013-09-06 02:13:00,60.1,59.5,29.88,North,-999,0.0,0.0,98,0.28,,,-99.99,FreeWX-Wi 1.01,2013-09-06 09:13:00,
2013-09-06 02:18:00,60.3,59.7,29.85,North,-999,0.0,0.0,98,0.28,,,-99.99,FreeWX-Wi 1.01,2013-09-06 09:18:00,
2013-09-06 02:23:00,60.3,59.7,29.85,North,-999,0.0,0.0,98,0.20,,,-99.99,FreeWX-Wi 1.01,2013-09-06 09:23:00,
2013-09-06 02:28:00,60.3,59.7,29.85,North,-999,0.0,0.0,98,0.20,,,-99.99,FreeWX-Wi 1.01,2013-09-06 09:28:00,
2013-09-06 02:33:00,60.4,59.9,29.85,North,-999,0.0,0.0,98,0.16,,,-99.99,FreeWX-Wi 1.01,2013-09-06 09:33:00,
2013-09-06 02:38:00,60.4,59.9,29.85,North,-999,0.0,0.0,98,0.16,,,-99.99,FreeWX-Wi 1.01,2013-09-06 09:38:00,
2013-09-06 02:43:00,60.4,59.9,29.85,North,-999,0.0,0.0,98,0.16,,,-99.99,FreeWX-Wi 1.01,2013-09-06 09:43:00,
2013-09-06 02:48:00,60.3,59.7,29.85,North,-999,0.0,2.2,98,0.12,,,-99.99,FreeWX-Wi 1.01,2013-09-06 09:48:00,
2013-09-06 02:53:00,60.3,59.7,29.85,North,-999,0.0,0.0,98,0.16,,,-99.99,FreeWX-Wi 1.01,2013-09-06 09:53:00,
2013-09-06 02:58:00,60.3,59.7,29.85,North,-999,0.0,0.0,98,0.12,,,-99.99,FreeWX-Wi 1.01,2013-09-06 09:58:00,
2013-09-06 03:03:00,60.1,59.5,29.85,North,-999,0.0,0.0,98,0.12,,,-99.99,FreeWX-Wi 1.01,2013-09-06 10:03:00,
2013-09-06 03:08:00,60.1,59.5,29.85,North,-999,0.0,2.2,98,0.12,,,-99.99,FreeWX-Wi 1.01,2013-09-06 10:08:00,
2013-09-06 03:13:00,60.1,59.5,29.85,North,-999,0.0,0.0,98,0.08,,,-99.99,FreeWX-Wi 1.01,2013-09-06 10:13:00,
2013-09-06 03:18:00,60.1,59.5,29.85,North,-999,0.0,0.0,98,0.08,,,-99.99,FreeWX-Wi 1.01,2013-09-06 10:18:00,
2013-09-06 03:23:00,60.1,59.5,29.85,North,-999,0.0,0.0,98,0.08,,,-99.99,FreeWX-Wi 1.01,2013-09-06 10:23:00,
2013-09-06 03:28:00,60.1,59.5,29.85,North,-999,0.0,0.0,98,0.04,,,-99.99,FreeWX-Wi 1.01,2013-09-06 10:28:00,
2013-09-06 03:33:00,60.1,59.5,29.85,North,-999,0.0,0.0,98,0.04,,,-99.99,FreeWX-Wi 1.01,2013-09-06 10:33:00,
2013-09-06 03:38:00,60.3,59.7,29.85,North,-999,0.0,0.0,98,0.04,,,-99.99,FreeWX-Wi 1.01,2013-09-06 10:38:00,
2013-09-06 03:43:00,60.3,59.7,29.85,North,-999,0.0,0.0,98,0.04,,,-99.99,FreeWX-Wi 1.01,2013-09-06 10:43:00,
2013-09-06 03:48:00,60.3,59.7,29.85,North,-999,0.0,0.0,98,0.00,,,-99.99,FreeWX-Wi 1.01,2013-09-06 10:48:00,
2013-09-06 03:53:00,60.3,59.7,29.85,North,-999,0.0,0.0,98,0.00,,,-99.99,FreeWX-Wi 1.01,2013-09-06 10:53:00,
2013-09-06 03:58:00,60.3,59.7,29.85,North,-999,0.0,0.0,98,0.00,,,-99.99,FreeWX-Wi 1.01,2013-09-06 10:58:00,
2013-09-06 04:03:00,60.3,59.7,29.85,North,-999,0.0,3.1,98,0.00,,,-99.99,FreeWX-Wi 1.01,2013-09-06 11:03:00,
2013-09-06 04:08:00,60.3,59.7,29.85,North,-999,0.0,0.0,98,0.04,,,-99.99,FreeWX-Wi 1.01,2013-09-06 11:08:00,
2013-09-06 04:13:00,60.3,59.7,29.85,North,-999,0.0,0.0,98,0.04,,,-99.99,FreeWX-Wi 1.01,2013-09-06 11:13:00,
2013-09-06 04:18:00,60.3,59.7,29.85,North,-999,0.0,0.0,98,0.04,,,-99.99,FreeWX-Wi 1.01,2013-09-06 11:18:00,
2013-09-06 04:23:00,60.3,59.7,29.85,North,-999,0.0,0.0,98,0.04,,,-99.99,FreeWX-Wi 1.01,2013-09-06 11:23:00,
2013-09-06 04:28:00,60.3,59.7,29.85,North,-999,0.0,0.0,98,0.04,,,-99.99,FreeWX-Wi 1.01,2013-09-06 11:28:00,
2013-09-06 04:33:00,60.3,59.7,29.85,North,-999,0.0,0.0,98,0.04,,,-99.99,FreeWX-Wi 1.01,2013-09-06 11:33:00,
2013-09-06 04:38:00,60.1,59.5,29.85,North,-999,0.0,0.0,98,0.04,,,-99.99,FreeWX-Wi 1.01,2013-09-06 11:38:00,
2013-09-06 04:43:00,60.3,59.7,29.85,North,-999,0.0,0.0,98,0.08,,,-99.99,FreeWX-Wi 1.01,2013-09-06 11:43:00,
2013-09-06 04:48:00,60.3,59.7,29.85,North,-999,0.0,2.2,98,0.08,,,-99.99,FreeWX-Wi 1.01,2013-09-06 11:48:00,
2013-09-06 04:53:00,60.1,59.5,29.85,North,-999,0.0,0.0,98,0.08,,,-99.99,FreeWX-Wi 1.01,2013-09-06 11:53:00,
2013-09-06 04:58:00,60.1,59.5,29.85,North,-999,0.0,0.0,98,0.12,,,-99.99,FreeWX-Wi 1.01,2013-09-06 11:58:00,
2013-09-06 05:03:00,60.1,59.5,29.85,North,-999,0.0,0.0,98,0.08,,,-99.99,FreeWX-Wi 1.01,2013-09-06 12:03:00,
2013-09-06 05:08:00,60.1,59.5,29.85,North,-999,0.0,0.0,98,0.08,,,-99.99,FreeWX-Wi 1.01,2013-09-06 12:08:00,
2013-09-06 05:13:00,60.1,59.5,29.85,North,-999,0.0,0.0,98,0.08,,,-99.99,FreeWX-Wi 1.01,2013-09-06 12:13:00,
2013-09-06 05:18:00,60.1,59.5,29.85,North,-999,0.0,0.0,98,0.08,,,-99.99,FreeWX-Wi 1.01,2013-09-06 12:18:00,
2013-09-06 05:23:00,60.1,59.5,29.85,North,-999,0.0,3.1,98,0.08,,,-99.99,FreeWX-Wi 1.01,2013-09-06 12:23:00,
2013-09-06 05:28:00,59.9,59.4,29.85,North,-999,0.0,3.1,98,0.12,,,-99.99,FreeWX-Wi 1.01,2013-09-06 12:28:00,
2013-09-06 05:33:00,59.9,59.4,29.85,North,-999,0.0,3.6,98,0.12,,,-99.99,FreeWX-Wi 1.01,2013-09-06 12:33:00,
2013-09-06 05:38:00,59.9,59.4,29.85,North,-999,0.0,2.7,98,0.12,,,-99.99,FreeWX-Wi 1.01,2013-09-06 12:38:00,
2013-09-06 05:43:00,60.1,59.5,29.85,North,-999,0.0,0.0,98,0.08,,,-99.99,FreeWX-Wi 1.01,2013-09-06 12:43:00,
2013-09-06 05:48:00,60.1,59.5,29.88,North,-999,0.0,0.0,98,0.08,,,-99.99,FreeWX-Wi 1.01,2013-09-06 12:48:00,
2013-09-06 05:53:00,60.1,59.5,29.88,North,-999,0.0,0.0,98,0.08,,,-99.99,FreeWX-Wi 1.01,2013-09-06 12:53:00,
2013-09-06 05:58:00,60.1,59.5,29.88,North,-999,0.0,2.2,98,0.04,,,-99.99,FreeWX-Wi 1.01,2013-09-06 12:58:00,
2013-09-06 06:03:00,60.1,59.5,29.88,North,-999,0.0,0.0,98,0.04,,,-99.99,FreeWX-Wi 1.01,2013-09-06 13:03:00,
2013-09-06 06:08:00,60.1,59.5,29.88,North,-999,0.0,0.0,98,0.04,,,-99.99,FreeWX-Wi 1.01,2013-09-06 13:08:00,
2013-09-06 06:13:00,60.1,59.5,29.88,North,-999,0.0,0.0,98,0.08,,,-99.99,FreeWX-Wi 1.01,2013-09-06 13:13:00,
2013-09-06 06:18:00,60.1,59.5,29.88,North,-999,0.0,0.0,98,0.08,,,-99.99,FreeWX-Wi 1.01,2013-09-06 13:18:00,
2013-09-06 06:23:00,60.1,59.5,29.88,North,-999,0.0,0.0,98,0.08,,,-99.99,FreeWX-Wi 1.01,2013-09-06 13:23:00,
2013-09-06 06:28:00,60.1,59.5,29.88,North,-999,0.0,0.0,98,0.04,,,-99.99,FreeWX-Wi 1.01,2013-09-06 13:28:00,
2013-09-06 06:33:00,60.1,59.5,29.88,North,-999,0.0,0.0,98,0.04,,,-99.99,FreeWX-Wi 1.01,2013-09-06 13:33:00,
2013-09-06 06:38:00,60.3,59.7,29.88,North,-999,0.0,0.0,98,0.04,,,-99.99,FreeWX-Wi 1.01,2013-09-06 13:38:00,
2013-09-06 06:43:00,60.3,59.7,29.88,North,-999,0.0,0.0,98,0.04,,,-99.99,FreeWX-Wi 1.01,2013-09-06 13:43:00,
2013-09-06 06:48:00,60.3,59.7,29.88,North,-999,0.0,0.0,98,0.08,,,-99.99,FreeWX-Wi 1.01,2013-09-06 13:48:00,
2013-09-06 06:53:00,60.1,59.5,29.88,North,-999,0.0,0.0,98,0.08,,,-99.99,FreeWX-Wi 1.01,2013-09-06 13:53:00,
2013-09-06 06:58:00,60.1,59.5,29.88,North,-999,0.0,0.0,98,0.08,,,-99.99,FreeWX-Wi 1.01,2013-09-06 13:58:00,
2013-09-06 07:03:00,60.1,59.5,29.88,North,-999,0.0,0.0,98,0.08,,,-99.99,FreeWX-Wi 1.01,2013-09-06 14:03:00,
2013-09-06 07:08:00,60.1,59.5,29.88,North,-999,0.0,0.0,98,0.12,,,-99.99,FreeWX-Wi 1.01,2013-09-06 14:08:00,
2013-09-06 07:13:00,60.1,59.5,29.88,North,-999,0.0,0.0,98,0.08,,,-99.99,FreeWX-Wi 1.01,2013-09-06 14:13:00,
2013-09-06 07:18:00,60.1,59.5,29.88,North,-999,0.0,0.0,98,0.08,,,-99.99,FreeWX-Wi 1.01,2013-09-06 14:18:00,
2013-09-06 07:23:00,60.3,59.7,29.88,North,-999,0.0,0.0,98,0.08,,,-99.99,FreeWX-Wi 1.01,2013-09-06 14:23:00,
2013-09-06 07:28:00,60.3,59.7,29.88,North,-999,0.0,2.7,98,0.08,,,-99.99,FreeWX-Wi 1.01,2013-09-06 14:28:00,
2013-09-06 07:33:00,60.3,59.7,29.88,North,-999,0.0,2.7,98,0.08,,,-99.99,FreeWX-Wi 1.01,2013-09-06 14:33:00,
2013-09-06 07:38:00,60.3,59.7,29.88,North,-999,0.0,0.0,98,0.08,,,-99.99,FreeWX-Wi 1.01,2013-09-06 14:38:00,
2013-09-06 07:43:00,60.3,59.7,29.88,North,-999,0.0,4.0,98,0.08,,,-99.99,FreeWX-Wi 1.01,2013-09-06 14:43:00,
2013-09-06 07:48:00,60.4,59.9,29.88,North,-999,0.0,0.0,98,0.04,,,-99.99,FreeWX-Wi 1.01,2013-09-06 14:48:00,
2013-09-06 07:53:00,60.4,59.9,29.88,North,-999,0.0,0.0,98,0.04,,,-99.99,FreeWX-Wi 1.01,2013-09-06 14:53:00,
2013-09-06 07:58:00,60.6,60.1,29.88,North,-999,0.0,0.0,98,0.04,,,-99.99,FreeWX-Wi 1.01,2013-09-06 14:58:00,
2013-09-06 08:03:00,60.8,60.3,29.88,North,-999,0.0,0.0,98,0.04,,,-99.99,FreeWX-Wi 1.01,2013-09-06 15:03:00,
2013-09-06 08:08:00,61.0,60.4,29.88,North,-999,0.0,0.0,98,0.00,,,-99.99,FreeWX-Wi 1.01,2013-09-06 15:08:00,
2013-09-06 08:13:00,61.0,60.4,29.88,North,-999,0.0,0.0,98,0.00,,,-99.99,FreeWX-Wi 1.01,2013-09-06 15:13:00,
2013-09-06 08:18:00,61.2,60.6,29.91,North,-999,0.0,0.0,98,0.00,,,-99.99,FreeWX-Wi 1.01,2013-09-06 15:18:00,
2013-09-06 08:23:00,61.3,60.8,29.91,North,-999,0.0,0.0,98,0.00,,,-99.99,FreeWX-Wi 1.01,2013-09-06 15:23:00,
2013-09-06 08:28:00,61.3,60.8,29.91,North,-999,0.0,0.0,98,0.00,,,-99.99,FreeWX-Wi 1.01,2013-09-06 15:28:00,
2013-09-06 08:33:00,61.2,60.6,29.91,North,-999,0.0,0.0,98,0.00,,,-99.99,FreeWX-Wi 1.01,2013-09-06 15:33:00,
2013-09-06 08:38:00,61.2,60.6,29.91,North,-999,0.0,0.0,98,0.00,,,-99.99,FreeWX-Wi 1.01,2013-09-06 15:38:00,
2013-09-06 08:43:00,61.3,60.8,29.91,North,-999,0.0,0.0,98,0.00,,,-99.99,FreeWX-Wi 1.01,2013-09-06 15:43:00,
2013-09-06 08:48:00,61.5,61.0,29.91,North,-999,0.0,0.0,98,0.00,,,-99.99,FreeWX-Wi 1.01,2013-09-06 15:48:00,
2013-09-06 08:53:00,61.5,61.0,29.91,North,-999,0.0,0.0,98,0.00,,,-99.99,FreeWX-Wi 1.01,2013-09-06 15:53:00,
2013-09-06 08:58:00,61.5,61.0,29.91,North,-999,0.0,0.0,98,0.00,,,-99.99,FreeWX-Wi 1.01,2013-09-06 15:58:00,
2013-09-06 09:03:00,61.5,61.0,29.91,North,-999,0.0,0.0,98,0.00,,,-99.99,FreeWX-Wi 1.01,2013-09-06 16:03:00,
2013-09-06 09:08:00,61.7,61.2,29.91,North,-999,0.0,0.0,98,0.00,,,-99.99,FreeWX-Wi 1.01,2013-09-06 16:08:00,
2013-09-06 09:13:00,61.7,61.2,29.91,North,-999,0.0,0.0,98,0.00,,,-99.99,FreeWX-Wi 1.01,2013-09-06 16:13:00,
2013-09-06 09:18:00,61.9,61.3,29.91,North,-999,0.0,0.0,98,0.00,,,-99.99,FreeWX-Wi 1.01,2013-09-06 16:18:00,
2013-09-06 09:23:00,62.1,61.5,29.91,North,-999,0.0,0.0,98,0.00,,,-99.99,FreeWX-Wi 1.01,2013-09-06 16:23:00,
2013-09-06 09:28:00,62.1,61.5,29.91,North,-999,0.0,0.0,98,0.00,,,-99.99,FreeWX-Wi 1.01,2013-09-06 16:28:00,
2013-09-06 09:33:00,62.2,61.7,29.91,North,-999,0.0,0.0,98,0.00,,,-99.99,FreeWX-Wi 1.01,2013-09-06 16:33:00,
2013-09-06 09:38:00,62.2,61.7,29.91,North,-999,0.0,0.0,98,0.00,,,-99.99,FreeWX-Wi 1.01,2013-09-06 16:38:00,
2013-09-06 09:43:00,62.4,61.9,29.91,North,-999,0.0,0.0,98,0.00,,,-99.99,FreeWX-Wi 1.01,2013-09-06 16:43:00,
2013-09-06 09:48:00,62.4,61.9,29.91,North,-999,0.0,0.0,98,0.00,,,-99.99,FreeWX-Wi 1.01,2013-09-06 16:48:00,
2013-09-06 09:53:00,62.4,61.9,29.91,North,-999,0.0,0.0,98,0.00,,,-99.99,FreeWX-Wi 1.01,2013-09-06 16:53:00,
2013-09-06 09:58:00,62.6,62.1,29.91,North,-999,0.0,0.0,98,0.00,,,-99.99,FreeWX-Wi 1.01,2013-09-06 16:58:00,
2013-09-06 10:03:00,62.6,62.1,29.94,North,-999,0.0,0.0,98,0.00,,,-99.99,FreeWX-Wi 1.01,2013-09-06 17:03:00,
2013-09-06 10:08:00,62.6,62.1,29.94,North,-999,0.0,0.0,98,0.00,,,-99.99,FreeWX-Wi 1.01,2013-09-06 17:08:00,
2013-09-06 10:13:00,62.8,62.2,29.94,North,-999,0.0,0.0,98,0.00,,,-99.99,FreeWX-Wi 1.01,2013-09-06 17:13:00,
2013-09-06 10:18:00,62.6,62.1,29.91,North,-999,0.0,0.0,98,0.00,,,-99.99,FreeWX-Wi 1.01,2013-09-06 17:18:00,
2013-09-06 10:23:00,62.8,62.2,29.91,North,-999,0.0,0.0,98,0.00,,,-99.99,FreeWX-Wi 1.01,2013-09-06 17:23:00,
2013-09-06 10:28:00,62.8,62.2,29.91,North,-999,0.0,0.0,98,0.00,,,-99.99,FreeWX-Wi 1.01,2013-09-06 17:28:00,
2013-09-06 10:33:00,63.0,62.4,29.91,North,-999,0.0,0.0,98,0.04,,,-99.99,FreeWX-Wi 1.01,2013-09-06 17:33:00,
2013-09-06 10:38:00,62.8,62.2,29.91,North,-999,0.0,0.0,98,0.04,,,-99.99,FreeWX-Wi 1.01,2013-09-06 17:38:00,
2013-09-06 10:43:00,62.8,62.2,29.91,North,-999,0.0,0.0,98,0.04,,,-99.99,FreeWX-Wi 1.01,2013-09-06 17:43:00,
2013-09-06 10:48:00,62.8,62.2,29.94,North,-999,0.0,0.0,98,0.04,,,-99.99,FreeWX-Wi 1.01,2013-09-06 17:48:00,
2013-09-06 10:53:00,62.8,62.2,29.94,North,-999,0.0,0.0,98,0.04,,,-99.99,FreeWX-Wi 1.01,2013-09-06 17:53:00,
2013-09-06 10:58:00,62.8,62.2,29.94,North,-999,0.0,0.0,98,0.04,,,-99.99,FreeWX-Wi 1.01,2013-09-06 17:58:00,
2013-09-06 11:03:00,62.6,62.1,29.94,North,-999,0.0,0.0,98,0.04,,,-99.99,FreeWX-Wi 1.01,2013-09-06 18:03:00,
2013-09-06 11:08:00,63.0,62.4,29.94,North,-999,0.0,0.0,98,0.04,,,-99.99,FreeWX-Wi 1.01,2013-09-06 18:08:00,
2013-09-06 11:13:00,63.1,62.6,29.94,North,-999,0.0,0.0,98,0.04,,,-99.99,FreeWX-Wi 1.01,2013-09-06 18:13:00,
2013-09-06 11:18:00,63.1,62.6,29.94,North,-999,0.0,0.0,98,0.04,,,-99.99,FreeWX-Wi 1.01,2013-09-06 18:18:00,
2013-09-06 11:23:00,63.7,63.1,29.94,North,-999,0.0,0.0,98,0.04,,,-99.99,FreeWX-Wi 1.01,2013-09-06 18:23:00,
2013-09-06 11:28:00,63.9,63.3,29.94,North,-999,0.0,2.2,98,0.04,,,-99.99,FreeWX-Wi 1.01,2013-09-06 18:28:00,
2013-09-06 11:33:00,64.0,63.5,29.94,North,-999,0.0,0.0,98,0.00,,,-99.99,FreeWX-Wi 1.01,2013-09-06 18:33:00,
2013-09-06 11:38:00,64.2,63.7,29.94,North,-999,0.0,2.2,98,0.00,,,-99.99,FreeWX-Wi 1.01,2013-09-06 18:38:00,
2013-09-06 11:43:00,63.9,63.3,29.94,North,-999,0.0,2.7,98,0.00,,,-99.99,FreeWX-Wi 1.01,2013-09-06 18:43:00,
2013-09-06 11:48:00,63.7,63.1,29.94,North,-999,0.0,0.0,98,0.00,,,-99.99,FreeWX-Wi 1.01,2013-09-06 18:48:00,
2013-09-06 11:53:00,63.9,63.3,29.94,North,-999,0.0,0.0,98,0.00,,,-99.99,FreeWX-Wi 1.01,2013-09-06 18:53:00,
2013-09-06 11:58:00,64.0,63.5,29.94,North,-999,0.0,0.0,98,0.00,,,-99.99,FreeWX-Wi 1.01,2013-09-06 18:58:00,
2013-09-06 12:03:00,64.2,63.7,29.94,North,-999,0.0,0.0,98,0.00,,,-99.99,FreeWX-Wi 1.01,2013-09-06 19:03:00,
2013-09-06 12:08:00,64.6,64.0,29.94,North,-999,0.0,4.0,98,0.00,,,-99.99,FreeWX-Wi 1.01,2013-09-06 19:08:00,
2013-09-06 12:13:00,65.3,64.8,29.94,North,-999,0.0,3.1,98,0.00,,,-99.99,FreeWX-Wi 1.01,2013-09-06 19:13:00,
2013-09-06 12:18:00,66.4,65.8,29.94,North,-999,0.0,2.2,98,0.00,,,-99.99,FreeWX-Wi 1.01,2013-09-06 19:18:00,
2013-09-06 12:23:00,66.4,65.8,29.94,North,-999,0.0,2.7,98,0.00,,,-99.99,FreeWX-Wi 1.01,2013-09-06 19:23:00,
2013-09-06 12:28:00,66.0,65.5,29.94,North,-999,0.0,2.7,98,0.00,,,-99.99,FreeWX-Wi 1.01,2013-09-06 19:28:00,
2013-09-06 12:33:00,66.2,65.7,29.94,North,-999,0.0,0.0,98,0.00,,,-99.99,FreeWX-Wi 1.01,2013-09-06 19:33:00,
2013-09-06 12:38:00,66.4,65.8,29.94,North,-999,0.0,0.0,98,0.00,,,-99.99,FreeWX-Wi 1.01,2013-09-06 19:38:00,
2013-09-06 12:43:00,66.4,65.8,29.94,North,-999,0.0,0.0,98,0.00,,,-99.99,FreeWX-Wi 1.01,2013-09-06 19:43:00,
2013-09-06 12:48:00,66.4,65.8,29.94,North,-999,0.0,2.2,98,0.00,,,-99.99,FreeWX-Wi 1.01,2013-09-06 19:48:00,
2013-09-06 12:53:00,66.6,66.0,29.94,North,-999,0.0,3.6,98,0.00,,,-99.99,FreeWX-Wi 1.01,2013-09-06 19:53:00,
2013-09-06 12:58:00,66.9,66.4,29.94,North,-999,0.0,2.7,98,0.00,,,-99.99,FreeWX-Wi 1.01,2013-09-06 19:58:00,
2013-09-06 13:03:00,66.9,66.4,29.94,North,-999,0.0,3.1,98,0.00,,,-99.99,FreeWX-Wi 1.01,2013-09-06 20:03:00,
2013-09-06 13:08:00,67.1,66.6,29.94,North,-999,0.0,3.1,98,0.00,,,-99.99,FreeWX-Wi 1.01,2013-09-06 20:08:00,
2013-09-06 13:13:00,68.0,67.5,29.94,North,-999,0.0,4.0,98,0.00,,,-99.99,FreeWX-Wi 1.01,2013-09-06 20:13:00,
2013-09-06 13:18:00,69.1,68.5,29.94,North,-999,0.0,4.9,98,0.00,,,-99.99,FreeWX-Wi 1.01,2013-09-06 20:18:00,
2013-09-06 13:23:00,69.6,69.1,29.94,SSW,213,1.0,3.6,98,0.00,,,-99.99,FreeWX-Wi 1.01,2013-09-06 20:23:00,
2013-09-06 13:28:00,70.5,70.0,29.94,SW,216,1.0,3.6,98,0.00,,,-99.99,FreeWX-Wi 1.01,2013-09-06 20:28:00,
2013-09-06 13:33:00,71.2,70.7,29.94,SSW,213,1.0,6.3,98,0.00,,,-99.99,FreeWX-Wi 1.01,2013-09-06 20:33:00,
2013-09-06 13:38:00,71.1,68.9,29.94,SSW,209,1.0,4.5,93,0.00,,,-99.99,FreeWX-Wi 1.01,2013-09-06 20:38:00,
2013-09-06 13:43:00,70.3,66.9,29.94,SSW,210,1.0,2.7,89,0.00,,,-99.99,FreeWX-Wi 1.01,2013-09-06 20:43:00,
2013-09-06 13:48:00,70.0,65.8,29.94,SSW,207,1.0,2.2,87,0.00,,,-99.99,FreeWX-Wi 1.01,2013-09-06 20:48:00,
2013-09-06 13:53:00,71.2,66.7,29.94,SSW,213,1.0,4.0,86,0.00,,,-99.99,FreeWX-Wi 1.01,2013-09-06 20:53:00,
2013-09-06 13:58:00,71.2,64.8,29.94,SSW,206,1.0,5.8,80,0.00,,,-99.99,FreeWX-Wi 1.01,2013-09-06 20:58:00,
2013-09-06 14:03:00,71.2,63.3,29.94,SW,215,1.0,3.1,76,0.00,,,-99.99,FreeWX-Wi 1.01,2013-09-06 21:03:00,
2013-09-06 14:08:00,71.1,63.1,29.94,SSW,213,1.0,0.0,76,0.00,,,-99.99,FreeWX-Wi 1.01,2013-09-06 21:08:00,
2013-09-06 14:13:00,71.2,63.7,29.94,North,-999,0.0,4.0,77,0.00,,,-99.99,FreeWX-Wi 1.01,2013-09-06 21:13:00,
2013-09-06 14:18:00,70.9,63.3,29.94,SW,218,1.0,4.9,77,0.00,,,-99.99,FreeWX-Wi 1.01,2013-09-06 21:18:00,
2013-09-06 14:23:00,70.5,63.0,29.94,SW,214,1.0,3.6,77,0.00,,,-99.99,FreeWX-Wi 1.01,2013-09-06 21:23:00,
2013-09-06 14:28:00,70.3,62.4,29.94,North,-999,0.0,3.1,76,0.00,,,-99.99,FreeWX-Wi 1.01,2013-09-06 21:28:00,
2013-09-06 14:33:00,70.3,62.4,29.97,North,-999,0.0,0.0,76,0.00,,,-99.99,FreeWX-Wi 1.01,2013-09-06 21:33:00,
2013-09-06 14:38:00,70.0,62.1,29.97,North,-999,0.0,2.7,76,0.00,,,-99.99,FreeWX-Wi 1.01,2013-09-06 21:38:00,
2013-09-06 14:43:00,69.8,62.6,29.97,North,-999,0.0,3.1,78,0.00,,,-99.99,FreeWX-Wi 1.01,2013-09-06 21:43:00,
2013-09-06 14:48:00,70.3,63.5,29.94,North,-999,0.0,3.6,79,0.00,,,-99.99,FreeWX-Wi 1.01,2013-09-06 21:48:00,
2013-09-06 14:53:00,70.5,62.2,29.94,North,-999,0.0,4.9,75,0.00,,,-99.99,FreeWX-Wi 1.01,2013-09-06 21:53:00,
2013-09-06 14:58:00,70.9,61.7,29.94,North,-999,0.0,2.7,73,0.00,,,-99.99,FreeWX-Wi 1.01,2013-09-06 21:58:00,
2013-09-06 15:03:00,71.1,60.8,29.94,North,-999,0.0,4.9,70,0.00,,,-99.99,FreeWX-Wi 1.01,2013-09-06 22:03:00,
2013-09-06 15:08:00,71.6,61.7,29.94,North,-999,0.0,0.0,71,0.00,,,-99.99,FreeWX-Wi 1.01,2013-09-06 22:08:00,
2013-09-06 15:13:00,72.5,63.0,29.94,North,-999,0.0,0.0,72,0.00,,,-99.99,FreeWX-Wi 1.01,2013-09-06 22:13:00,
2013-09-06 15:18:00,73.0,61.9,29.97,North,-999,0.0,4.0,68,0.00,,,-99.99,FreeWX-Wi 1.01,2013-09-06 22:18:00,
2013-09-06 15:23:00,72.3,61.2,29.97,North,-999,0.0,2.7,68,0.00,,,-99.99,FreeWX-Wi 1.01,2013-09-06 22:23:00,
2013-09-06 15:28:00,71.4,60.6,29.97,North,-999,0.0,5.4,69,0.00,,,-99.99,FreeWX-Wi 1.01,2013-09-06 22:28:00,
2013-09-06 15:33:00,70.9,59.7,29.97,SSW,205,1.0,5.4,68,0.00,,,-99.99,FreeWX-Wi 1.01,2013-09-06 22:33:00,
2013-09-06 15:38:00,70.3,59.7,29.97,SSW,205,1.0,5.4,69,0.00,,,-99.99,FreeWX-Wi 1.01,2013-09-06 22:38:00,
2013-09-06 15:43:00,71.1,61.2,29.97,SSW,201,1.0,4.0,71,0.00,,,-99.99,FreeWX-Wi 1.01,2013-09-06 22:43:00,
2013-09-06 15:48:00,72.3,61.2,29.97,SSW,197,1.0,3.1,68,0.00,,,-99.99,FreeWX-Wi 1.01,2013-09-06 22:48:00,
2013-09-06 15:54:00,72.5,61.7,29.97,SSW,202,1.0,2.7,69,0.00,,,-99.99,FreeWX-Wi 1.01,2013-09-06 22:54:00,
2013-09-06 15:59:00,73.0,61.0,29.97,SSW,200,2.0,6.3,66,0.00,,,-99.99,FreeWX-Wi 1.01,2013-09-06 22:59:00,
2013-09-06 16:04:00,73.6,61.2,29.97,SSW,201,1.0,3.6,65,0.00,,,-99.99,FreeWX-Wi 1.01,2013-09-06 23:04:00,
2013-09-06 16:09:00,72.9,59.5,29.97,SSW,202,1.0,6.3,63,0.00,,,-99.99,FreeWX-Wi 1.01,2013-09-06 23:09:00,
2013-09-06 16:14:00,72.0,59.5,29.97,SSW,205,1.0,3.1,65,0.00,,,-99.99,FreeWX-Wi 1.01,2013-09-06 23:14:00,
2013-09-06 16:19:00,70.9,59.0,29.97,SSW,201,1.0,5.4,66,0.00,,,-99.99,FreeWX-Wi 1.01,2013-09-06 23:19:00,
2013-09-06 16:24:00,70.3,59.7,29.97,SSW,196,1.0,3.6,69,0.00,,,-99.99,FreeWX-Wi 1.01,2013-09-06 23:24:00,
2013-09-06 16:29:00,70.2,59.9,29.97,SSW,197,1.0,3.6,70,0.00,,,-99.99,FreeWX-Wi 1.01,2013-09-06 23:29:00,
2013-09-06 16:34:00,70.0,60.1,29.97,SSW,200,1.0,2.2,71,0.00,,,-99.99,FreeWX-Wi 1.01,2013-09-06 23:34:00,
2013-09-06 16:39:00,69.8,59.9,29.97,North,-999,0.0,2.2,71,0.00,,,-99.99,FreeWX-Wi 1.01,2013-09-06 23:39:00,
2013-09-06 16:44:00,69.6,59.7,29.97,North,-999,0.0,3.6,71,0.00,,,-99.99,FreeWX-Wi 1.01,2013-09-06 23:44:00,
2013-09-06 16:49:00,69.8,59.9,29.97,North,-999,0.0,3.1,71,0.00,,,-99.99,FreeWX-Wi 1.01,2013-09-06 23:49:00,
2013-09-06 16:54:00,70.0,60.1,29.97,North,-999,0.0,6.7,71,0.00,,,-99.99,FreeWX-Wi 1.01,2013-09-06 23:54:00,
2013-09-06 16:59:00,70.3,60.4,29.97,SSW,205,1.0,4.0,71,0.00,,,-99.99,FreeWX-Wi 1.01,2013-09-06 23:59:00,
2013-09-06 17:04:00,70.3,59.2,29.97,SSW,198,1.0,5.4,68,0.00,,,-99.99,FreeWX-Wi 1.01,2013-09-07 00:04:00,
2013-09-06 17:09:00,70.2,59.2,29.97,SSW,194,1.0,4.0,68,0.00,,,-99.99,FreeWX-Wi 1.01,2013-09-07 00:09:00,
2013-09-06 17:14:00,70.2,59.5,29.97,South,191,1.0,4.0,69,0.00,,,-99.99,FreeWX-Wi 1.01,2013-09-07 00:14:00,
2013-09-06 17:19:00,69.8,59.2,29.97,South,187,1.0,5.4,69,0.00,,,-99.99,FreeWX-Wi 1.01,2013-09-07 00:19:00,
2013-09-06 17:24:00,69.3,59.0,29.97,South,188,2.0,6.3,70,0.00,,,-99.99,FreeWX-Wi 1.01,2013-09-07 00:24:00,
2013-09-06 17:29:00,68.9,59.5,29.97,SSW,200,1.0,2.7,72,0.00,,,-99.99,FreeWX-Wi 1.01,2013-09-07 00:29:00,
2013-09-06 17:34:00,68.4,59.7,29.97,SW,217,1.0,6.3,74,0.00,,,-99.99,FreeWX-Wi 1.01,2013-09-07 00:34:00,
2013-09-06 17:39:00,68.2,59.2,29.97,SW,215,2.0,7.6,73,0.00,,,-99.99,FreeWX-Wi 1.01,2013-09-07 00:39:00,
2013-09-06 17:44:00,68.0,59.4,29.97,SW,221,2.0,5.8,74,0.00,,,-99.99,FreeWX-Wi 1.01,2013-09-07 00:44:00,
2013-09-06 17:49:00,68.2,59.9,29.97,SW,227,2.0,3.1,75,0.00,,,-99.99,FreeWX-Wi 1.01,2013-09-07 00:49:00,
2013-09-06 17:54:00,68.0,59.4,29.97,SW,233,1.0,6.3,74,0.00,,,-99.99,FreeWX-Wi 1.01,2013-09-07 00:54:00,
2013-09-06 17:59:00,68.0,59.4,29.97,SW,223,1.0,3.6,74,0.00,,,-99.99,FreeWX-Wi 1.01,2013-09-07 00:59:00,
2013-09-06 18:04:00,68.2,59.2,29.97,SW,228,1.0,5.4,73,0.00,,,-99.99,FreeWX-Wi 1.01,2013-09-07 01:04:00,
2013-09-06 18:09:00,68.2,59.2,29.97,SW,236,1.0,4.0,73,0.00,,,-99.99,FreeWX-Wi 1.01,2013-09-07 01:09:00,
2013-09-06 18:14:00,68.2,59.5,29.97,SW,230,1.0,5.4,74,0.00,,,-99.99,FreeWX-Wi 1.01,2013-09-07 01:14:00,
2013-09-06 18:19:00,68.2,59.5,29.97,SW,231,1.0,3.6,74,0.00,,,-99.99,FreeWX-Wi 1.01,2013-09-07 01:19:00,
2013-09-06 18:24:00,68.0,59.4,29.97,SW,229,1.0,4.0,74,0.00,,,-99.99,FreeWX-Wi 1.01,2013-09-07 01:24:00,
2013-09-06 18:29:00,67.6,59.7,29.97,SW,232,2.0,8.3,76,0.00,,,-99.99,FreeWX-Wi 1.01,2013-09-07 01:29:00,
2013-09-06 18:34:00,67.5,59.5,29.97,SW,224,2.0,5.8,76,0.00,,,-99.99,FreeWX-Wi 1.01,2013-09-07 01:34:00,
2013-09-06 18:39:00,67.5,59.9,29.97,SW,219,2.0,4.9,77,0.00,,,-99.99,FreeWX-Wi 1.01,2013-09-07 01:39:00,
2013-09-06 18:44:00,67.3,60.3,29.97,SW,220,2.0,4.0,78,0.00,,,-99.99,FreeWX-Wi 1.01,2013-09-07 01:44:00,
2013-09-06 18:49:00,66.7,60.1,29.97,SW,218,2.0,5.8,79,0.00,,,-99.99,FreeWX-Wi 1.01,2013-09-07 01:49:00,
2013-09-06 18:54:00,66.4,60.1,29.97,SSW,207,2.0,3.1,80,0.00,,,-99.99,FreeWX-Wi 1.01,2013-09-07 01:54:00,
2013-09-06 18:59:00,66.0,60.1,29.97,SSW,209,2.0,4.9,81,0.00,,,-99.99,FreeWX-Wi 1.01,2013-09-07 01:59:00,
2013-09-06 19:04:00,65.7,59.7,29.97,SSW,205,1.0,3.6,81,0.00,,,-99.99,FreeWX-Wi 1.01,2013-09-07 02:04:00,
2013-09-06 19:09:00,65.3,59.4,29.97,SSW,200,1.0,3.1,81,0.00,,,-99.99,FreeWX-Wi 1.01,2013-09-07 02:09:00,
2013-09-06 19:14:00,65.1,59.5,29.97,SSW,199,1.0,4.0,82,0.00,,,-99.99,FreeWX-Wi 1.01,2013-09-07 02:14:00,
2013-09-06 19:19:00,64.8,59.2,29.97,SSW,211,1.0,3.6,82,0.00,,,-99.99,FreeWX-Wi 1.01,2013-09-07 02:19:00,
2013-09-06 19:24:00,64.4,59.2,29.97,SW,218,1.0,4.0,83,0.00,,,-99.99,FreeWX-Wi 1.01,2013-09-07 02:24:00,
2013-09-06 19:29:00,64.2,59.0,29.97,SW,214,1.0,4.0,83,0.00,,,-99.99,FreeWX-Wi 1.01,2013-09-07 02:29:00,
2013-09-06 19:34:00,64.0,58.8,29.97,SSW,211,1.0,4.0,83,0.00,,,-99.99,FreeWX-Wi 1.01,2013-09-07 02:34:00,
2013-09-06 19:39:00,63.9,59.0,29.97,SSW,210,1.0,4.0,84,0.00,,,-99.99,FreeWX-Wi 1.01,2013-09-07 02:39:00,
2013-09-06 19:44:00,63.7,58.8,29.97,SSW,205,1.0,4.0,84,0.00,,,-99.99,FreeWX-Wi 1.01,2013-09-07 02:44:00,
2013-09-06 19:49:00,63.5,58.6,29.97,SSW,194,1.0,3.1,84,0.00,,,-99.99,FreeWX-Wi 1.01,2013-09-07 02:49:00,
2013-09-06 19:54:00,63.1,58.6,29.97,SSW,197,1.0,3.6,85,0.00,,,-99.99,FreeWX-Wi 1.01,2013-09-07 02:54:00,
2013-09-06 19:59:00,63.0,58.5,29.97,SSW,203,1.0,2.2,85,0.00,,,-99.99,FreeWX-Wi 1.01,2013-09-07 02:59:00,
2013-09-06 20:04:00,62.8,58.5,29.97,SSW,208,1.0,2.2,86,0.00,,,-99.99,FreeWX-Wi 1.01,2013-09-07 03:04:00,
2013-09-06 20:09:00,62.6,58.3,29.97,SW,214,1.0,2.2,86,0.00,,,-99.99,FreeWX-Wi 1.01,2013-09-07 03:09:00,
2013-09-06 20:14:00,62.2,58.3,29.97,North,-999,0.0,2.7,87,0.00,,,-99.99,FreeWX-Wi 1.01,2013-09-07 03:14:00,
2013-09-06 20:19:00,62.1,58.1,30.00,North,-999,0.0,3.6,87,0.00,,,-99.99,FreeWX-Wi 1.01,2013-09-07 03:19:00,
2013-09-06 20:24:00,62.2,58.6,30.00,North,-999,0.0,3.6,88,0.00,,,-99.99,FreeWX-Wi 1.01,2013-09-07 03:24:00,
2013-09-06 20:29:00,62.2,59.0,30.00,North,-999,0.0,4.0,89,0.00,,,-99.99,FreeWX-Wi 1.01,2013-09-07 03:29:00,
2013-09-06 20:34:00,62.2,59.2,30.00,North,-999,0.0,3.1,90,0.00,,,-99.99,FreeWX-Wi 1.01,2013-09-07 03:34:00,
2013-09-06 20:39:00,62.2,59.2,30.00,North,-999,0.0,3.6,90,0.00,,,-99.99,FreeWX-Wi 1.01,2013-09-07 03:39:00,
2013-09-06 20:44:00,62.1,59.0,30.00,North,-999,0.0,3.1,90,0.00,,,-99.99,FreeWX-Wi 1.01,2013-09-07 03:44:00,
2013-09-06 20:49:00,62.1,59.0,30.00,SSW,200,1.0,4.0,90,0.00,,,-99.99,FreeWX-Wi 1.01,2013-09-07 03:49:00,
2013-09-06 20:54:00,62.2,59.2,30.00,SSW,202,1.0,3.6,90,0.00,,,-99.99,FreeWX-Wi 1.01,2013-09-07 03:54:00,
2013-09-06 20:59:00,62.2,59.5,30.00,SSW,205,1.0,3.1,91,0.00,,,-99.99,FreeWX-Wi 1.01,2013-09-07 03:59:00,
2013-09-06 21:04:00,62.2,59.5,30.00,SSW,206,1.0,3.6,91,0.00,,,-99.99,FreeWX-Wi 1.01,2013-09-07 04:04:00,
2013-09-06 21:09:00,62.4,59.7,30.00,SSW,205,1.0,4.9,91,0.00,,,-99.99,FreeWX-Wi 1.01,2013-09-07 04:09:00,
2013-09-06 21:14:00,62.6,59.9,30.00,SSW,205,1.0,5.8,91,0.00,,,-99.99,FreeWX-Wi 1.01,2013-09-07 04:14:00,
2013-09-06 21:19:00,62.6,59.9,30.00,SSW,209,2.0,3.6,91,0.00,,,-99.99,FreeWX-Wi 1.01,2013-09-07 04:19:00,
2013-09-06 21:24:00,62.6,59.9,30.00,SSW,213,2.0,4.0,91,0.00,,,-99.99,FreeWX-Wi 1.01,2013-09-07 04:24:00,
2013-09-06 21:29:00,62.4,59.7,30.00,SW,215,2.0,3.1,91,0.00,,,-99.99,FreeWX-Wi 1.01,2013-09-07 04:29:00,
2013-09-06 21:34:00,62.2,59.5,30.00,SSW,213,2.0,0.0,91,0.00,,,-99.99,FreeWX-Wi 1.01,2013-09-07 04:34:00,
2013-09-06 21:39:00,61.9,59.2,30.00,SSW,211,1.0,0.0,91,0.00,,,-99.99,FreeWX-Wi 1.01,2013-09-07 04:39:00,
2013-09-06 21:44:00,61.9,59.2,30.00,SSW,211,1.0,4.0,91,0.00,,,-99.99,FreeWX-Wi 1.01,2013-09-07 04:44:00,
2013-09-06 21:49:00,61.7,59.0,30.00,North,-999,0.0,0.0,91,0.00,,,-99.99,FreeWX-Wi 1.01,2013-09-07 04:49:00,
2013-09-06 21:54:00,61.7,59.4,30.00,North,-999,0.0,3.1,92,0.00,,,-99.99,FreeWX-Wi 1.01,2013-09-07 04:54:00,
2013-09-06 21:59:00,61.7,59.4,30.00,North,-999,0.0,0.0,92,0.00,,,-99.99,FreeWX-Wi 1.01,2013-09-07 04:59:00,
2013-09-06 22:04:00,61.5,59.2,30.00,North,-999,0.0,0.0,92,0.00,,,-99.99,FreeWX-Wi 1.01,2013-09-07 05:04:00,
2013-09-06 22:09:00,61.3,59.0,30.00,North,-999,0.0,0.0,92,0.00,,,-99.99,FreeWX-Wi 1.01,2013-09-07 05:09:00,
2013-09-06 22:14:00,61.3,59.0,30.00,North,-999,0.0,3.6,92,0.00,,,-99.99,FreeWX-Wi 1.01,2013-09-07 05:14:00,
2013-09-06 22:19:00,61.7,59.7,30.00,North,-999,0.0,2.2,93,0.00,,,-99.99,FreeWX-Wi 1.01,2013-09-07 05:19:00,
2013-09-06 22:24:00,61.7,59.7,30.00,North,-999,0.0,0.0,93,0.00,,,-99.99,FreeWX-Wi 1.01,2013-09-07 05:24:00,
2013-09-06 22:29:00,61.9,59.9,30.00,North,-999,0.0,3.1,93,0.00,,,-99.99,FreeWX-Wi 1.01,2013-09-07 05:29:00,
2013-09-06 22:34:00,62.1,60.1,30.00,North,-999,0.0,5.8,93,0.00,,,-99.99,FreeWX-Wi 1.01,2013-09-07 05:34:00,
2013-09-06 22:39:00,62.1,60.1,30.00,North,-999,0.0,2.2,93,0.00,,,-99.99,FreeWX-Wi 1.01,2013-09-07 05:39:00,
2013-09-06 22:44:00,62.1,60.1,30.00,North,-999,0.0,3.6,93,0.00,,,-99.99,FreeWX-Wi 1.01,2013-09-07 05:44:00,
2013-09-06 22:49:00,62.2,60.3,30.03,North,-999,0.0,4.0,93,0.00,,,-99.99,FreeWX-Wi 1.01,2013-09-07 05:49:00,
2013-09-06 22:54:00,62.2,60.3,30.03,North,-999,0.0,3.6,93,0.00,,,-99.99,FreeWX-Wi 1.01,2013-09-07 05:54:00,
2013-09-06 22:59:00,62.2,60.3,30.03,SSW,197,1.0,4.9,93,0.00,,,-99.99,FreeWX-Wi 1.01,2013-09-07 05:59:00,
2013-09-06 23:04:00,62.2,60.3,30.00,SSW,198,1.0,4.5,93,0.00,,,-99.99,FreeWX-Wi 1.01,2013-09-07 06:04:00,
2013-09-06 23:09:00,62.2,60.3,30.00,SSW,200,1.0,4.0,93,0.00,,,-99.99,FreeWX-Wi 1.01,2013-09-07 06:09:00,
2013-09-06 23:14:00,62.2,60.3,30.00,SSW,204,1.0,3.1,93,0.00,,,-99.99,FreeWX-Wi 1.01,2013-09-07 06:14:00,
2013-09-06 23:19:00,62.1,60.1,30.00,SSW,206,1.0,2.2,93,0.00,,,-99.99,FreeWX-Wi 1.01,2013-09-07 06:19:00,
2013-09-06 23:24:00,61.7,59.7,30.00,SSW,207,1.0,0.0,93,0.00,,,-99.99,FreeWX-Wi 1.01,2013-09-07 06:24:00,
2013-09-06 23:29:00,61.3,59.4,30.00,North,-999,0.0,0.0,93,0.00,,,-99.99,FreeWX-Wi 1.01,2013-09-07 06:29:00,
2013-09-06 23:34:00,61.0,59.0,30.03,North,-999,0.0,0.0,93,0.00,,,-99.99,FreeWX-Wi 1.01,2013-09-07 06:34:00,
2013-09-06 23:39:00,60.6,58.6,30.03,North,-999,0.0,0.0,93,0.00,,,-99.99,FreeWX-Wi 1.01,2013-09-07 06:39:00,
2013-09-06 23:44:00,60.4,58.5,30.03,North,-999,0.0,0.0,93,0.00,,,-99.99,FreeWX-Wi 1.01,2013-09-07 06:44:00,
2013-09-06 23:49:00,60.4,58.5,30.00,North,-999,0.0,0.0,93,0.00,,,-99.99,FreeWX-Wi 1.01,2013-09-07 06:49:00,
2013-09-06 23:54:00,60.6,58.8,30.00,North,-999,0.0,3.6,94,0.00,,,-99.99,FreeWX-Wi 1.01,2013-09-07 06:54:00,
2013-09-06 23:59:00,60.8,59.0,30.00,North,-999,0.0,2.7,94,0.00,,,-99.99,FreeWX-Wi 1.01,2013-09-07 06:59:00,